Location: Hylvaty SDH
(49.9612°N, 16.4057°E)
Time: 07:11:49
(UTC+02:00)

Transit 2A Rocket - Pass Details

Date: 13 July 2020
Orbit: 584 x 919 km, 66.7° (Epoch: 13 August)

Event Time Altitude Azimuth Distance (km) Brightness Sun altitude
Rises 22:49:33 0° 312° (NW) 3,567 10.0 -12.7°
Reaches altitude 10° 22:53:05 10° 293° (WNW) 2,608 8.6 -13.0°
Maximum altitude 22:56:36 16° 257° (WSW) 2,172 7.5 -13.3°
Drops below altitude 10° 23:00:02 10° 222° (SW) 2,533 7.5 -13.6°
Enters shadow 23:02:36 - 205° (SSW) 3,175 7.8 -13.8°
